Regional Weather Roundup
Issued by NWS

Home | Current Version | Previous Version | Graphics & Text | Print | Product List | Glossary On
Versions: 1 2 3 4 5 6 7 8 9 10 11 12 13 14 15 16 17 18 19 20 21 22 23 24 25 26 27 28 29 30 31 32 33 34 35 36 37 38 39 40 41 42 43 44 45 46 47 48 49 50
000
ASUS43 KLOT 030912
RWRIL

ILLINOIS REGIONAL WEATHER ROUNDUP
NATIONAL WEATHER SERVICE CHICAGO/ROMEOVILLE IL
400 AM CDT THU SEP 03 2015

NOTE: "FAIR" INDICATES FEW OR NO CLOUDS BELOW 12,000 FEET WITH NO
SIGNIFICANT WEATHER AND/OR OBSTRUCTIONS TO VISIBILITY.

* THESE STATIONS ARE NOT UNDER NWS QUALITY CONTROL. THEY ALSO MAY NOT
  REPORT WEATHER SUCH AS PRECIPITATION OR FOG.

ILZ001-002-007-009-015-016-024-031000-
NORTHWEST ILLINOIS

CITY           SKY/WX    TMP DP  RH WIND       PRES   REMARKS
MOLINE         MOCLDY    75  68  78 CALM      29.94R
STERLING*      CLEAR     70  68  94 CALM      29.94R
SAVANNA*       PTCLDY    70  67  90 CALM      29.94S
$$

ILZ003-004-008-010-011-017-018-031000-
NORTH CENTRAL ILLINOIS

CITY           SKY/WX    TMP DP  RH WIND       PRES   REMARKS
ROCKFORD       PTCLDY    71  67  87 S6        29.96S
FREEPORT*      PTCLDY    71  67  88 SW7       29.96S
ROCHELLE*      PTCLDY    68  67  96 CALM      29.96S
DE KALB*       MOCLDY    71  68  90 CALM      29.97S
PERU*          CLEAR     71  67  86 S5        29.97S
$$

ILZ005-006-012>014-019>023-031000-
NORTHEAST ILLINOIS

CITY           SKY/WX    TMP DP  RH WIND       PRES   REMARKS
CHICAGO-OHARE  PTCLDY    74  69  85 SW6       29.95S
CHICAGO-MIDWAY PTCLDY    77  67  71 SW7       29.96R
AURORA         MOCLDY    69  67  93 S3        29.97S FOG
LANSING*       MOCLDY    72  67  83 SW3       29.97S
JOLIET*        PTCLDY    72  70  94 CALM      29.97S
WAUKEGAN       MOCLDY    73  68  84 SW8       29.94S
DUPAGE AIRPORT PTCLDY    72  67  84 SW7       29.96S
KANKAKEE*      PTCLDY    72  67  84 S3        29.99R
WHEELING       PTCLDY    75  67  76 S5        29.96S
MORRIS*        CLEAR     69  66  91 CALM      29.96S
ROMEOVILLE*    PTCLDY    70  66  88 SW5       29.98R
NORTHERLY ISL    N/A     78  66  66 SW7         N/A  HX  80
$$

LMZ740>746-031000-
SOUTHERN LAKE MICHIGAN

STATION/POSITION SKY/WX   TEMP    WIND        PRES    VSBY  WAVE
                          AIR SEA DIR/SP/G                  HT/PER
                          (F)     (DEG/KT/KT) (MB)    (MI)  (FT/S)
SOUTHERN BUOY              74 71  200/ 10/ 10 1012.9F         0
WILMETTE HARBOR            69 62   10/  6/  6   N/A           0
HARRISON CRIB              79     240/ 15/ 24   N/A
BURNHAM HARBOR             78     210/  5/  7   N/A
CALUMET HARBOR             76     220/  4/  6   N/A
BURNS HARBOR               77     210/ 11/ 15 1014.9S
MICHIGAN CITY              76     180/ 10/ 11   N/A
MICHIGAN CITY 6N           76 73  240/  8/ 10   N/A           1
ST. JOSEPH                 74 74  250/  8/  8   N/A           1
$$

ILZ025>027-034>036-040-047-049-050-058-095>099-031000-
WEST-CENTRAL ILLINOIS

CITY           SKY/WX    TMP DP  RH WIND       PRES   REMARKS
QUINCY         PTCLDY    72  67  84 S6        29.97S
GALESBURG*     CLEAR     69  67  92 S3        29.96S
MACOMB*        CLEAR     72  68  87 S3        29.98S
JACKSONVILLE*  CLEAR     74  69  84 S5        29.98S
PITTSFIELD*    PTCLDY    73  69  85 S3        29.99R
$$

ILZ028>032-037-038-041>044-048-051>054-059>061-031000-
CENTRAL ILLINOIS

CITY           SKY/WX    TMP DP  RH WIND       PRES   REMARKS
PONTIAC        CLOUDY    70  69  97 SE3       29.98S
BLOOMINGTON    CLEAR     71  69  93 SW6       30.00S
DECATUR        CLEAR     72  66  81 SW6       29.99F
PEORIA         CLEAR     73  67  81 CALM      29.97S
LACON*         PTCLDY    71  67  85 SW3       29.95S
LINCOLN*       PTCLDY    70  66  88 CALM      29.98S
SPRINGFIELD    CLEAR     72  68  87 CALM      29.98S
TAYLORVILLE    CLEAR     68  68 100 CALM      30.00S
$$

ILZ033-039-045-046-055>057-062-063-031000-
EAST-CENTRAL ILLINOIS

CITY           SKY/WX    TMP DP  RH WIND       PRES   REMARKS
CHAMPAIGN      CLEAR     69  66  90 S3        30.00S
RANTOUL*       CLEAR     72  68  89 CALM      30.00R
MATTOON        CLEAR     74  66  76 SW6       30.00S
PARIS*         CLEAR     66  65  98 CALM      30.02R
$$

ILZ079-100>102-031000-
SOUTHWEST ILLINOIS

CITY           SKY/WX    TMP DP  RH WIND       PRES   REMARKS
ALTON          CLEAR     68  67  96 CALM      29.99S FOG
BELLEVILLE     FOG       70  70 100 CALM      29.98S VSB 3/4
CAHOKIA*       CLEAR     71  68  90 CALM      29.99S
SPARTA*        CLEAR     70  68  94 CALM      30.01S
$$

ILZ064>066-069>071-074>076-080>082-084>086-088>090-092>094-031000-
SOUTH-CENTRAL ILLINOIS

CITY           SKY/WX    TMP DP  RH WIND       PRES   REMARKS
CARBONDALE     FOG       67  66  97 CALM      30.00S VSB 1/4
CAIRO*         CLEAR     66  66 100 CALM      30.00S
EFFINGHAM*     CLEAR     67  65  91 CALM      30.02S
MARION         CLEAR     72  70  94 CALM      30.01S
MT. VERNON     CLEAR     64  59  82 CALM      30.01S
CENTRALIA*     CLEAR     69  69  99 CALM      30.00S FOG
SALEM*         CLEAR     68  65  91 CALM      30.00S
METROPOLIS*    CLEAR     66  66 100 CALM      30.01S FOG
$$

ILZ067-068-072-073-078-083-087-091-031000-
SOUTHEAST ILLINOIS

CITY           SKY/WX    TMP DP  RH WIND       PRES   REMARKS
LAWRENCEVILLE  CLEAR     68  66  93 CALM      30.01S FOG
FLORA*         CLEAR     65  64  95 CALM      30.01S FOG
FAIRFIELD*     CLEAR     67  67  99 CALM      30.00S FOG
HARRISBURG*    CLEAR     67  65  96 CALM      30.01S
ROBINSON*      CLEAR     64  64  97 CALM      30.02S FOG
CARMI*         FOG       65  65 100 CALM      30.00S VSB 1/4
$$

ABBREVIATIONS USED IN REMARKS
   TC - TEMPERATURE IN CELSIUS
  WCI - WIND CHILL INDEX
   HX - HEAT INDEX
  VSB - VISIBILITY
$$



USA.gov is the U.S. government's official web portal to all federal, state and local government web resources and services.